Dewpoint
48 47 46 46 45 44 43 43 42 44 46 46 47 47 47 48 48 46 47 54 40 36 36 37 36 35 31 32 30 29 30 29 26 24 22 22 23 25 26 27 27 28 31 30 33 32 29 37 36 35 36 38 39 39
47 46 45 45 44 43 43 43 44 46 46 46 47 47 48 47 46 47 41 43 44 37 36 40 37 36 38 39 33 35 33 29 31 28 26 27 27 30 28 28 31 29 34 32 34 34 39 40 37 38 39 39 40 39
46 45 44 44 43 43 43 44 45 46 46 47 48 47 45 45 44 44 41 42 40 36 36 35 35 37 37 39 41 31 34 35 36 40 35 32 30 34 30 30 32 35 37 35 36 38 38 39 40 39 40 40 38 39
45 44 44 43 43 44 45 45 45 46 46 46 45 45 44 46 45 43 42 44 40 34 34 34 36 37 37 39 41 41 41 40 40 38 36 32 31 34 33 34 33 35 36 35 37 37 39 39 40 41 40 41 39 39
44 43 42 42 44 45 45 45 45 45 45 45 44 45 46 46 46 46 46 44 41 33 31 34 37 36 38 38 37 39 42 42 38 37 35 34 35 36 35 35 34 37 35 35 35 38 39 40 42 43 43 42 41 40
43 42 43 44 44 45 45 45 45 44 45 45 45 45 45 45 44 37 41 41 38 39 35 33 37 36 37 38 38 38 40 41 38 35 34 35 37 39 32 34 38 39 40 41 38 40 41 43 43 42 39 38 38 39
42 43 44 44 45 45 45 45 45 45 45 44 44 44 44 44 45 42 39 40 43 44 35 31 30 35 35 37 38 39 42 39 37 36 36 35 36 37 35 32 37 39 41 41 41 42 41 41 39 38 35 35 38 35
43 44 44 45 45 45 44 44 44 43 43 43 43 43 43 43 42 39 42 44 44 37 33 34 30 34 37 34 34 37 36 37 38 35 35 34 35 38 34 37 38 40 40 41 41 42 42 42 40 38 36 32 32 32
44 44 44 44 44 44 44 43 42 42 42 43 43 43 44 40 34 37 40 43 51 38 34 28 30 31 37 33 36 35 36 36 35 35 33 34 33 34 36 37 38 40 40 39 41 41 42 42 42 40 39 37 35 33
44 44 44 44 44 44 43 41 41 44 43 45 44 39 43 38 39 39 41 43 41 35 33 30 30 32 33 33 32 33 34 36 32 32 34 33 34 38 38 39 40 41 38 39 41 41 42 43 43 42 40 41 39 39
44 44 44 44 43 43 42 43 44 44 42 43 42 42 35 36 40 39 37 40 41 32 30 30 33 32 34 31 30 31 34 33 31 32 33 32 34 36 39 38 39 39 38 37 39 40 41 42 42 43 42 42 42 42
44 44 44 43 43 43 44 43 44 42 40 39 36 37 36 36 42 36 41 35 31 27 30 31 32 33 33 32 28 32 28 31 30 34 34 31 35 38 39 37 38 39 39 38 37 36 37 38 40 42 42 42 43 43
43 43 42 42 41 41 42 42 41 41 39 39 35 38 41 37 34 29 33 30 32 29 32 32 31 29 31 30 29 26 26 29 30 31 32 37 37 38 39 39 38 38 39 39 39 37 35 35 36 36 37 39 39 41
41 41 42 42 42 42 41 42 41 39 35 41 38 33 35 34 25 26 26 30 31 32 32 30 27 26 27 29 31 24 26 26 26 28 33 36 35 38 37 34 31 30 33 37 39 39 37 36 35 37 38 38 39 39
42 42 42 41 41 42 42 43 44 41 36 38 35 32 29 30 34 34 32 34 34 35 31 29 27 27 28 30 29 27 26 24 23 27 39 34 35 35 33 30 28 28 29 30 32 39 40 39 37 37 38 37 37 39
41 40 41 43 43 43 43 41 41 40 36 34 32 30 32 33 35 34 34 34 35 31 28 23 24 26 26 25 24 26 23 21 26 32 34 35 34 32 30 27 26 26 27 28 30 35 37 37 38 38 39 39 40 39
39 36 42 42 41 42 42 41 42 42 36 33 33 33 33 34 33 33 32 31 33 25 26 25 24 21 24 26 21 23 28 31 34 33 33 34 32 32 29 28 27 25 25 26 27 28 32 36 37 36 35 36 36 37
35 40 42 42 41 41 43 42 42 41 35 34 36 35 34 33 33 32 30 28 26 22 22 23 25 21 25 18 25 29 31 34 34 33 33 33 33 32 27 28 27 24 24 24 25 26 29 35 36 36 36 37 40 39
38 37 40 41 42 41 39 40 39 34 32 33 32 31 32 32 32 32 30 30 32 28 25 21 21 21 22 26 30 31 33 32 32 33 33 34 32 29 28 27 25 24 23 23 25 26 27 30 32 32 32 34 36 39
41 41 41 41 40 40 38 38 39 35 32 33 31 30 29 28 29 31 29 26 19 19 20 20 21 25 27 30 32 32 33 34 33 32 31 30 29 29 29 28 23 23 23 25 26 29 28 29 28 31 34 35 35 36
37 39 41 42 42 40 37 34 34 33 34 33 30 28 28 28 26 28 25 21 20 17 18 25 28 30 35 34 33 34 35 33 32 32 30 29 28 27 27 25 24 24 25 26 28 29 30 32 33 34 39 39 37 35
40 41 41 42 39 38 37 35 35 33 34 35 30 29 30 33 31 27 23 24 24 22 24 27 30 32 34 34 34 35 35 33 33 30 29 29 26 25 23 24 24 26 27 28 30 32 34 31 29 28 36 38 32 34
40 40 40 39 35 36 34 37 32 32 32 33 33 30 33 32 29 24 29 24 24 23 23 25 30 32 33 33 33 32 31 30 27 26 23 23 25 26 26 26 28 31 31 31 32 31 32 29 32 37 37 37 38 39
38 37 34 35 34 32 35 34 32 32 33 31 31 27 28 30 26 27 25 25 26 24 23 24 27 30 30 32 31 31 30 25 23 25 25 25 26 26 27 27 28 30 32 34 30 31 34 39 34 34 43 35 35 35
34 31 34 31 33 32 33 33 30 31 32 33 27 29 31 27 26 28 25 30 30 28 28 27 29 28 25 25 26 27 29 29 25 26 27 28 28 31 32 30 32 32 34 39 38 42 43 44 43 44 41 36 38 38
30 31 32 32 32 31 30 31 32 32 30 33 28 31 32 30 31 28 28 33 32 30 34 32 30 27 29 29 26 27 28 29 27 26 30 33 30 33 33 34 35 35 35 38 41 42 42 40 37 39 39 39 35 36
28 30 29 29 28 29 33 34 32 32 31 31 30 34 32 32 32 30 39 38 34 33 34 34 33 31 30 31 31 30 32 32 29 28 33 35 36 32 33 35 32 35 35 38 40 41 41 39 39 39 38 39 37 36
30 28 29 30 32 31 33 33 32 31 33 31 31 31 32 33 32 39 41 40 40 38 37 37 36 34 36 36 39 40 40 44 39 41 42 41 38 39 35 38 39 30 38 44 45 43 42 38 36 36 36 36 35 36
30 30 31 30 32 32 33 33 30 29 33 32 34 30 32 37 43 42 44 47 44 40 39 39 42 43 40 42 43 44 44 41 36 34 35 37 39 41 42 42 42 42 43 42 33 39 40 40 38 37 35 34 35 34
31 32 30 32 31 30 36 39 36 38 37 39 37 34 34 38 41 44 44 44 43 45 42 43 45 44 41 42 43 44 46 45 44 39 36 37 40 46 43 44 45 46 46 37 43 38 30 34 33 34 34 34 34 34
33 32 32 33 32 33 34 35 36 38 36 35 34 38 36 37 38 41 42 43 42 37 36 36 36 37 38 42 37 38 40 38 41 44 44 48 43 39 39 40 41 40 38 37 36 38 37 35 34 34 34 33 33 32
36 33 33 30 30 32 34 33 34 33 33 33 33 33 32 34 34 37 42 38 35 35 36 37 36 37 39 43 39 42 38 43 42 42 42 45 44 39 40 42 37 36 35 35 35 35 35 34 34 34 33 33 32 32
33 34 33 31 30 31 33 34 33 32 32 35 32 32 32 34 33 40 43 41 37 37 38 37 37 36 38 39 40 41 39 43 39 35 34 36 38 38 42 38 36 35 35 36 34 35 34 34 33 33 32 32 31 31
Lifted_Index
5 5 6 8 10 12 14 15 15 15 14 13 13 11 10 9 8 7 6 6 6 6 7 8 8 9 8 8 9 9 9 9 9 8 8 7 5 4 2 2 2 1 1 1 1 1 2 3 4 4 4 3 3 2
5 5 7 9 11 13 15 15 15 14 13 13 12 11 10 9 8 8 7 7 7 7 8 9 9 9 9 9 9 9 9 9 8 7 7 6 5 4 3 2 2 2 1 1 1 2 3 3 4 4 4 3 3 2
5 6 8 10 12 14 15 15 14 13 12 11 11 10 10 9 9 8 8 8 8 7 8 9 10 10 10 9 9 9 9 8 7 6 6 6 5 5 4 3 3 3 2 2 2 3 3 4 4 4 4 3 2 2
6 8 10 12 14 15 14 14 13 11 11 10 10 10 10 9 9 8 8 8 7 7 7 9 10 10 10 9 9 9 8 7 7 6 6 6 6 6 5 4 4 4 3 3 3 3 3 3 4 4 3 3 2 2
8 9 11 13 14 14 13 12 11 10 10 10 10 10 10 9 8 8 7 7 7 7 7 8 9 9 9 9 9 8 7 7 6 6 6 6 6 6 6 5 5 5 4 3 3 3 3 3 3 3 3 2 2 2
9 11 12 13 13 13 12 11 10 10 10 10 10 10 9 9 8 7 7 7 8 7 7 8 9 9 9 9 9 8 7 7 7 7 7 7 7 6 5 5 5 5 5 4 3 3 3 3 3 2 2 2 2 2
10 11 12 13 13 12 11 10 10 10 10 10 10 10 9 9 8 7 7 8 8 7 7 8 8 9 9 9 8 8 7 7 7 7 7 7 7 6 5 5 5 5 5 4 4 3 3 3 3 2 2 3 3 3
11 12 12 12 12 11 10 10 10 10 11 11 10 10 9 9 8 8 8 8 7 7 7 7 7 8 8 8 8 8 7 7 7 7 7 7 6 6 5 5 5 5 5 4 4 4 3 3 3 3 3 3 4 4
11 11 12 12 11 11 10 10 10 11 11 10 10 9 9 9 9 9 8 7 7 6 6 7 6 7 7 8 8 7 7 7 7 7 7 6 6 6 6 5 5 5 5 5 4 4 3 3 3 3 3 4 4 4
11 11 12 12 11 10 11 11 11 11 10 9 8 8 9 9 9 9 8 7 6 6 7 7 7 6 7 7 7 7 7 6 6 6 6 6 6 6 6 6 6 5 5 5 4 4 4 3 3 3 4 4 4 4
11 11 12 11 11 11 11 11 11 10 9 8 8 9 10 9 8 8 7 6 6 6 7 7 7 7 7 7 7 7 7 6 6 6 6 5 6 6 7 6 6 6 6 5 5 5 4 4 4 4 4 4 4 5
11 12 12 11 11 11 11 11 10 10 9 8 8 9 9 8 7 7 7 6 6 6 7 7 7 7 7 8 8 7 7 7 6 6 6 6 6 6 7 7 7 6 6 6 6 6 5 5 5 4 4 4 5 5
12 12 12 11 11 11 11 11 10 9 8 8 8 8 7 7 6 6 6 6 6 6 7 7 7 8 8 8 8 7 7 7 6 6 6 6 7 7 7 7 7 7 7 7 6 6 6 6 6 6 5 5 5 5
11 11 11 11 11 11 11 10 10 9 8 7 7 6 6 6 6 6 5 5 6 6 7 7 8 8 8 8 7 7 6 6 5 5 5 6 7 7 8 8 8 8 8 7 7 7 7 7 7 7 7 7 6 6
11 11 11 11 11 11 10 10 9 8 7 6 6 5 5 5 5 5 5 5 6 6 7 7 7 7 7 7 7 6 5 5 5 5 6 7 7 8 8 9 9 9 9 9 8 7 6 6 7 7 7 7 7 7
11 11 11 11 11 10 10 9 8 7 6 5 5 5 5 5 5 5 5 6 6 6 7 7 7 7 6 6 6 5 5 4 5 6 6 7 8 8 9 10 10 10 10 10 9 8 7 7 6 6 6 7 7 7
10 10 10 11 10 10 9 8 7 6 5 4 5 5 5 5 5 6 6 6 6 7 7 7 6 6 6 5 5 5 5 5 6 6 7 8 8 9 10 10 11 11 10 10 10 9 8 7 6 6 6 6 6 6
9 10 10 10 10 9 8 7 6 5 4 5 5 5 6 6 6 6 7 7 7 7 7 7 6 6 5 5 5 5 6 6 6 7 7 8 9 9 10 10 11 11 11 10 10 9 8 7 6 6 6 6 5 5
10 10 10 10 9 8 7 6 6 5 5 5 6 6 6 6 7 7 8 8 8 8 7 7 7 6 6 5 6 6 6 6 7 7 8 8 9 9 10 10 10 11 10 10 9 8 7 7 7 6 6 5 5 5
10 10 10 9 8 7 6 6 6 5 5 6 6 7 7 7 7 8 8 8 8 8 7 7 7 6 6 6 6 6 6 6 7 7 8 8 9 9 10 10 10 10 9 9 8 7 6 6 6 6 5 5 5 5
10 9 9 8 6 5 5 6 6 6 6 6 7 7 7 7 7 8 8 8 8 8 8 7 7 7 6 6 6 6 6 7 7 8 8 8 9 9 9 9 9 8 8 7 6 5 5 5 5 5 5 5 6 6
8 8 7 6 5 5 5 6 6 6 6 6 6 6 6 6 7 8 8 8 8 8 8 8 7 7 7 6 7 7 7 7 7 8 8 9 9 8 8 8 7 7 6 5 5 4 4 5 5 5 5 6 7 7
8 7 6 5 4 4 5 6 6 6 5 5 5 5 6 6 7 8 7 7 8 8 9 8 8 7 7 7 7 7 8 8 8 9 9 9 8 7 7 6 6 5 4 4 4 4 5 6 6 6 6 7 8 8
7 7 6 5 4 4 4 4 4 4 5 4 4 4 5 6 7 7 6 7 8 8 9 9 8 8 8 8 8 8 9 9 9 9 8 8 7 6 5 5 4 4 3 4 4 5 5 6 6 6 6 7 8 8
7 6 6 6 5 4 3 3 2 2 3 3 3 4 5 6 6 5 5 6 7 8 8 8 8 8 8 8 9 9 9 9 9 8 7 6 5 4 4 4 4 3 3 4 4 5 5 5 5 5 6 6 7 7
6 7 7 6 5 4 3 2 2 2 2 2 3 5 6 5 4 4 5 6 7 7 7 8 8 8 8 8 8 8 8 8 7 6 5 4 4 3 3 3 3 3 3 4 4 5 5 5 5 6 6 6 7 7
7 7 6 6 5 4 3 3 3 2 2 3 3 4 4 4 4 5 5 6 6 6 7 7 7 7 7 7 7 7 6 6 5 5 4 3 3 3 3 3 3 3 3 3 4 5 5 5 6 6 6 6 6 6
7 6 6 5 5 4 3 3 3 3 3 3 3 3 3 4 4 5 5 5 5 6 6 6 6 6 6 6 5 5 5 4 4 4 3 3 3 3 3 3 3 4 4 4 5 5 6 6 6 6 6 6 6 6
6 6 5 4 4 4 4 3 3 4 4 4 4 3 4 5 5 5 5 4 4 5 5 5 5 5 4 4 4 4 4 4 4 4 4 4 3 3 3 3 3 4 4 5 5 6 6 6 6 6 6 6 6 7
6 6 5 5 4 5 5 5 5 5 5 5 4 4 5 6 6 6 5 5 5 5 5 4 4 4 4 4 4 4 4 4 4 4 4 4 4 4 4 4 4 4 5 5 6 6 7 7 7 7 7 7 7 7
6 6 5 5 5 6 6 6 6 6 6 5 5 5 5 6 6 7 6 6 6 5 5 5 5 5 5 5 5 5 5 5 5 5 4 4 4 5 5 5 6 6 6 6 6 6 6 7 7 7 7 7 7 8
6 6 6 5 6 6 7 7 7 6 6 5 5 5 5 6 6 6 7 7 6 6 6 6 6 6 6 6 6 6 6 6 6 6 5 5 5 6 6 6 6 6 6 6 6 6 6 6 6 7 7 7 8 8
6 6 6 6 6 6 7 7 7 6 6 5 5 5 5 5 5 6 7 7 7 6 6 6 6 6 6 6 7 7 7 7 7 6 6 6 6 6 6 6 6 6 6 6 6 6 6 6 6 7 7 7 8 8